Garden City, KS

7:33 PM CDT on October 23, 2017 (GMT -0500)
Garden City Regional

Weather History for KGCK - October, 2012

Change the Weather History Date:

Saturday, October 13, 2012

  Actual Average Record
Temperature  
Mean Temperature 63 °F 57 °F  
Max Temperature 73 °F 71 °F 95 °F (1968)
Min Temperature 52 °F 42 °F 26 °F (1986)
Degree Days  
Heating Degree Days 2 9  
Month to date heating degree days 169 95  
Since 1 July heating degree days 215 167  
Cooling Degree Days 0 1  
Month to date cooling degree days 1 17  
Year to date cooling degree days 1643 1295  
Growing Degree Days 12 (Base 50)    
Moisture  
Dew Point 51 °F    
Average Humidity 63    
Maximum Humidity 100    
Minimum Humidity 25    
Precipitation  
Precipitation 0.56 in 0.04 in 0.56 in (2012)
Month to date precipitation 0.95 0.63  
Year to date precipitation 12.67 17.75  
Sea Level Pressure  
Sea Level Pressure 29.83 in    
Wind  
Wind Speed 13 mph (SSW)    
Max Wind Speed 38 mph    
Max Gust Speed 47 mph    
Visibility 7 miles    
Events Fog , Rain , Thunderstorm    
T = Trace of Precipitation, MM = Missing Value Source: NWS Daily Summary

Daily Weather History Graph

Daily Weather History Graph

Search for Another Location

Airport or City:

Trip Planner

Search our weather history database for the weather conditions in past years. The results will help you decide how hot, cold, wet, or windy it might be!

Date:

Astronomy

Oct. 13, 2012 Rise Set
Actual Time 7:49 AM CDT 7:07 PM CDT
Civil Twilight 7:23 AM CDT 7:33 PM CDT
Nautical Twilight 6:53 AM CDT 8:04 PM CDT
Astronomical Twilight 6:22 AM CDT 8:34 PM CDT
Moon 5:43 AM CDT (10/13) 5:51 PM CDT (10/13)
Length of Visible Light 12h 10m
Length of Day
11h 17m
Waning Crescent, 5% of the Moon is Illuminated
Oct 13
Waning Crescent
Oct 15
New
Oct 21
First Quarter
Oct 29
Full
Nov 6
Last Quarter

Hourly Weather History & Observations

Time (CDT) Temp. Dew Point Humidity Pressure Visibility Wind Dir Wind Speed Gust Speed Precip Events Conditions
12:42 AM 55.4 °F 50.0 °F 82% 30.00 in 8.0 mi West 16.1 mph 27.6 mph N/A Thunderstorm Overcast
12:54 AM 53.1 °F 51.1 °F 93% 29.98 in 1.8 mi SW 13.8 mph 32.2 mph 0.18 in Rain , Thunderstorm Thunderstorms and Rain
1:07 AM 51.8 °F 51.8 °F 100% 29.98 in 2.0 mi WSW 10.4 mph - 0.18 in Rain , Thunderstorm Thunderstorms and Rain
1:19 AM 51.8 °F 51.8 °F 100% 29.97 in 1.8 mi SSW 5.8 mph - 0.33 in Rain , Thunderstorm Heavy Thunderstorms and Rain
1:27 AM 53.6 °F 53.6 °F 100% 29.94 in 2.5 mi ESE 8.1 mph - N/A Rain , Thunderstorm Heavy Thunderstorms and Rain
1:37 AM 53.6 °F 53.6 °F 100% 29.92 in 4.0 mi SSE 12.7 mph - 0.41 in Rain , Thunderstorm Thunderstorms and Rain
1:54 AM 55.9 °F 54.0 °F 93% 29.88 in 8.0 mi SSE 12.7 mph - 0.43 in Rain , Thunderstorm Light Thunderstorms and Rain
2:16 AM 55.4 °F 55.4 °F 100% 29.93 in 10.0 mi South 12.7 mph - 0.01 in Rain Light Rain
2:49 AM 57.2 °F 55.4 °F 94% 29.93 in 7.0 mi South 10.4 mph - 0.05 in Rain , Thunderstorm Light Rain
2:54 AM 57.0 °F 55.9 °F 96% 29.89 in 6.0 mi South 9.2 mph 18.4 mph 0.05 in Rain , Thunderstorm Light Rain
3:46 AM 57.2 °F 57.2 °F 100% 29.90 in 6.0 mi SSW 11.5 mph - 0.13 in Rain , Thunderstorm Light Thunderstorms and Rain
3:54 AM 59.0 °F 57.9 °F 96% 29.86 in 4.0 mi SW 9.2 mph - 0.17 in Rain , Thunderstorm Light Thunderstorms and Rain
4:01 AM 59.0 °F 57.2 °F 94% 29.87 in 2.5 mi South 11.5 mph - 0.04 in Rain Rain
4:10 AM 59.0 °F 57.2 °F 94% 29.87 in 6.0 mi South 13.8 mph - 0.05 in Rain Light Rain
4:54 AM 59.0 °F 57.0 °F 93% 29.83 in 10.0 mi South 11.5 mph - 0.05 in   Scattered Clouds
5:54 AM 59.0 °F 57.9 °F 96% 29.83 in 10.0 mi South 9.2 mph - N/A   Overcast
6:24 AM 57.2 °F 57.2 °F 100% 29.86 in 8.0 mi South 5.8 mph - N/A   Overcast
6:27 AM 57.2 °F 57.2 °F 100% 29.86 in 8.0 mi SSE 4.6 mph - N/A   Overcast
6:38 AM 57.2 °F 57.2 °F 100% 29.86 in 1.5 mi South 5.8 mph - N/A   Overcast
6:47 AM 57.2 °F 57.2 °F 100% 29.85 in 0.2 mi SSE 5.8 mph - N/A Fog Fog
6:54 AM 57.9 °F 57.0 °F 97% 29.82 in 0.2 mi SSE 4.6 mph - N/A Fog Fog
7:04 AM 57.2 °F 57.2 °F 100% 29.85 in 0.5 mi SSE 5.8 mph - N/A Fog Fog
7:18 AM 57.2 °F 57.2 °F 100% 29.85 in 0.2 mi South 5.8 mph - N/A Fog Fog
7:35 AM 55.4 °F 55.4 °F 100% 29.85 in 1.0 mi South 9.2 mph - N/A   Mist
7:38 AM 55.4 °F 55.4 °F 100% 29.85 in 3.0 mi South 9.2 mph - N/A   Mostly Cloudy
7:50 AM 55.4 °F 55.4 °F 100% 29.85 in 6.0 mi South 6.9 mph - N/A   Scattered Clouds
7:54 AM 55.9 °F 55.0 °F 97% 29.82 in 6.0 mi South 8.1 mph - N/A   Partly Cloudy
8:54 AM 57.0 °F 55.9 °F 96% 29.80 in 8.0 mi SSW 8.1 mph - N/A   Clear
9:54 AM 61.0 °F 57.9 °F 90% 29.78 in 10.0 mi SSW 8.1 mph - N/A   Clear
10:54 AM 64.0 °F 51.1 °F 63% 29.77 in 10.0 mi West 8.1 mph - N/A   Clear
11:54 AM 64.9 °F 46.0 °F 50% 29.74 in 10.0 mi West 12.7 mph - N/A   Clear
12:54 PM 68.0 °F 44.6 °F 43% 29.77 in 10.0 mi West 9.2 mph - N/A   Clear
1:54 PM 71.1 °F 39.0 °F 31% 29.68 in 10.0 mi West 11.5 mph - N/A   Clear
2:54 PM 70.0 °F 37.9 °F 31% 29.66 in 10.0 mi WSW 5.8 mph - N/A   Clear
3:54 PM 72.0 °F 35.1 °F 26% 29.64 in 10.0 mi West 18.4 mph 25.3 mph N/A   Partly Cloudy
4:54 PM 71.1 °F 34.0 °F 26% 29.63 in 10.0 mi West 17.3 mph - N/A   Clear
5:54 PM 70.0 °F 37.9 °F 31% 29.63 in 10.0 mi WNW 17.3 mph 21.9 mph N/A   Clear
6:54 PM 57.2 °F 42.8 °F 59% 29.75 in 10.0 mi WNW 26.5 mph 35.7 mph N/A   Clear
7:54 PM 59.0 °F 43.0 °F 55% 29.72 in 10.0 mi WNW 16.1 mph 24.2 mph N/A   Clear
8:54 PM 55.4 °F 46.4 °F 72% 29.79 in 10.0 mi WNW 13.8 mph - N/A   Partly Cloudy
9:54 PM 54.0 °F 46.9 °F 77% 29.76 in 10.0 mi West 12.7 mph - N/A   Partly Cloudy
10:54 PM 55.4 °F 46.4 °F 72% 29.81 in 10.0 mi WNW 18.4 mph 25.3 mph N/A   Partly Cloudy
11:54 PM 55.4 °F 46.4 °F 72% 29.84 in 10.0 mi WNW 19.6 mph 27.6 mph N/A   Clear